DW1850 Weather Reports


Display with metric or nautical units.
time (UTC)temp
F
wind
direction
speed
MPH
gust
MPH
rain 1hr
in
rain 24hr
in
rain mn
in
humidity
%
barometer
mb
20260903030009 89 158 0.0 5.0 0.00 0.00 0.00 59 1009.4
20260903023008 89 159 0.0 1.0 0.00 0.00 0.00 57 1008.7
20260903020007 91 159 0.0 1.0 0.00 0.00 0.00 55 1008.3
20260903010006 92 159 0.0 0.0 0.00 0.00 0.00 52 1007.8
20260902233003 101 192 0.0 0.0 0.00 0.00 0.00 40 1007.9
20260902230003 102 192 0.0 0.0 0.00 0.00 0.00 36 1007.7
20260902223002 102 192 0.0 0.0 0.00 0.00 0.00 38 1007.8
20260902213000 101 192 0.0 0.0 0.00 0.00 0.00 38 1008.3
20260902205959 102 192 0.0 0.0 0.00 0.00 0.00 37 1008.5
20260902202958 99 192 0.0 0.0 0.00 0.00 0.00 41 1008.9
20260902195958 98 192 0.0 0.0 0.00 0.00 0.00 43 1009.3
20260902192957 100 192 0.0 1.0 0.00 0.00 0.00 41 1009.8
20260902185956 100 192 0.0 4.0 0.00 0.00 0.00 40 1010.3
20260902182955 100 190 0.0 9.0 0.00 0.00 0.00 41 1010.9
20260902175955 97 196 1.0 9.0 0.00 0.00 0.00 45 1011.2
20260902172954 96 216 7.0 8.0 0.00 0.00 0.00 49 1011.9
20260902165953 94 223 0.0 7.0 0.00 0.00 0.00 49 1012.1
20260902155952 89 215 0.0 7.0 0.00 0.00 0.00 59 1012.6
20260902152951 87 221 0.0 10.0 0.00 0.00 0.00 64 1012.7
20260902145950 85 210 1.0 12.0 0.00 0.00 0.00 65 1012.6
20260902142950 84 156 1.0 9.0 0.00 0.00 0.00 69 1012.6
20260902135949 82 119 4.0 7.0 0.00 0.00 0.00 74 1012.5
20260902132948 79 105 0.0 0.0 0.00 0.00 0.00 82 1012.4
20260902125947 77 105 0.0 0.0 0.00 0.00 0.00 83 1011.9
20260902122946 76 105 0.0 0.0 0.00 0.00 0.00 83 1011.9
20260902115946 76 105 0.0 0.0 0.00 0.00 0.00 82 1011.6
20260902112945 75 105 0.0 0.0 0.00 0.00 0.00 83 1011.3
20260902102944 76 105 0.0 0.0 0.00 0.00 0.00 82 1011.7
20260902092942 79 105 0.0 0.0 0.00 0.00 0.00 78 1011.6
20260902085941 80 105 0.0 0.0 0.00 0.00 0.00 77 1012.0
20260902082940 80 105 0.0 0.0 0.00 0.00 0.00 75 1011.8
20260902080009 81 105 0.0 0.0 0.00 0.00 0.00 75 1011.9
20260902065938 83 105 0.0 0.0 0.00 0.00 0.00 73 1012.3
20260902060007 84 105 0.0 5.0 0.00 0.00 0.00 71 1012.3
20260902053005 85 105 0.0 6.0 0.00 0.00 0.00 69 1012.1
20260902050008 86 105 6.0 7.0 0.00 0.00 0.00 67 1012.2
20260902040003 87 101 0.0 6.0 0.00 0.00 0.00 62 1012.0